Location: *
(50.2903°S, 172.5375°W)
Time: 14:00:40
(UTC+00:00)

Cosmos 2058 - Pass Details

Date: 17 November 2019
Orbit: 561 x 585 km, 82.5° (Epoch: 06 December)

Event Time Altitude Azimuth Distance (km) Brightness Sun altitude
Rises 14:44:59 0° 189° (S) 2,832 6.9 -6.7°
Reaches altitude 10° 14:47:13 10° 187° (S) 1,929 6.1 -6.5°
Maximum altitude 14:51:28 73° 102° (ESE) 622 3.3 -6.0°
Drops below altitude 10° 14:55:42 10° 16° (NNE) 1,914 5.4 -5.4°
Sets 14:57:54 0° 13° (NNE) 2,809 6.2 -5.2°
